(128114) = 2003 QW19

Discovered at Palomar on 2003-08-22 by NEAT.

Orbit

Orbit type: Main Belt

Note: WebGL enabled browser required.

epoch2024-03-31.0
epoch JD2460400.5
perihelion date2021-11-13.90487
perihelion JD2459532.40487
argument of perihelion (°)55.20494
ascending node (°)350.71859
inclination (°)15.00052
eccentricity0.0453893
perihelion distance (AU)3.0718618
Tisserand w.r.t. Jupiter3.1
ΔV w.r.t. Earth (km/sec)11.8
semimajor axis (AU)3.2179208
mean anomaly (°)148.22045
mean daily motion (°/day)0.17074220
aphelion distance (AU)3.364
period (years)5.77
P-vector [x]0.69110453
P-vector [y]0.54924471
P-vector [z]0.46979226
Q-vector [x]-0.72154827
Q-vector [y]0.56185857
Q-vector [z]0.40457762
absolute magnitude14.46
phase slope0.15
uncertainty0
referenceMPEC 2024-F50
observations used827
oppositions19
arc length (days)9257
first opposition used1998
last opposition used2024
residual rms (arc-secs)0.64
perturbers coarse indicatorM-v
perturbers precise indicator003Ek
first observation date used1998-11-14.0
last observation date used2024-03-19.0
computer nameMPCLINUX
JD of orbit computation2456937.420938
perihelion JD uncertainty (days)7.0934E-04
argument of perihelion uncertainty (°)1.1899E-04
ascending node uncertainty (°)2.2100E-05
inclination uncertainty (°)1.1171E-05
eccentricity uncertainty 6.7125E-08
perihelion distance uncertainty (AU)2.2474E-07
Minimum Orbit Intersection Distances (in AU)
for orbit epoch: 2460400.5, reference: E2024-G51
Mercury2.75368
Venus2.373
Earth2.09986
Mars1.57736
Jupiter1.83675
Saturn6.01599
Uranus15.1454
Neptune26.777

Observations

854 total observations over interval: 1998 11 14.18674 – 2024 03 19.526594
These data are available for download (format description).

Date (UT) J2000 RA J2000 Dec Magn Location Ref
1998 11 14.18674 02 54 51.86 +36 52 24.1 18.7   704 – Lincoln Laboratory ETS, New Mexico MPS 90470
1998 11 14.20885 02 54 50.37 +36 52 23.6 19.2   704 – Lincoln Laboratory ETS, New Mexico MPS 90470
1998 11 14.23091 02 54 49.24 +36 52 19.4 19.2   704 – Lincoln Laboratory ETS, New Mexico MPS 90470
1998 11 14.25346 02 54 47.72 +36 52 15.5 19.8   704 – Lincoln Laboratory ETS, New Mexico MPS 90470
2001 04 15.42624 13 03 13.41 -18 56 14.9 21.1   608 – Haleakala-AMOS MPS 88051
2001 04 15.43686 13 03 12.89 -18 56 12.7 20.5   608 – Haleakala-AMOS MPS 88051
2001 04 15.44793 13 03 12.29 -18 56 11.0 20.2   608 – Haleakala-AMOS MPS 88051
2001 04 26.22833 12 54 34.12 -18 29 17.6 19.4 R 699 – Lowell Observatory-LONEOS MPS 88051
2001 04 26.24795 12 54 33.08 -18 29 14.9   699 – Lowell Observatory-LONEOS MPS 88051
2001 04 26.26761 12 54 32.23 -18 29 12.3   699 – Lowell Observatory-LONEOS MPS 88051
2001 04 26.28710 12 54 31.31 -18 29 07.9   699 – Lowell Observatory-LONEOS MPS 88051
2003 08 22.37977 23 32 15.33 -06 05 28.8 18.8   644 – Palomar Mountain/NEAT MPS 83461
2003 08 22.39477 23 32 14.67 -06 05 29.2 18.7   644 – Palomar Mountain/NEAT MPS 83461
2003 08 22.40959 23 32 14.01 -06 05 29.7 19.2   644 – Palomar Mountain/NEAT MPS 83461
2003 08 23.29328 23 31 35.90 -06 06 00.9 19.0   704 – Lincoln Laboratory ETS, New Mexico MPS 83461
2003 08 23.31847 23 31 34.78 -06 06 01.8 18.7   704 – Lincoln Laboratory ETS, New Mexico MPS 83461
2003 08 23.33101 23 31 34.22 -06 06 02.2 18.8   704 – Lincoln Laboratory ETS, New Mexico MPS 83461
2003 08 23.34376 23 31 33.64 -06 06 02.6 18.9   704 – Lincoln Laboratory ETS, New Mexico MPS 83461
2003 08 26.32041 23 29 20.19 -06 08 08.2 19.4   704 – Lincoln Laboratory ETS, New Mexico MPS 83461
2003 08 26.33285 23 29 19.63 -06 08 08.2 19.6   704 – Lincoln Laboratory ETS, New Mexico MPS 83461
2003 08 26.34627 23 29 19.07 -06 08 09.5 19.1   704 – Lincoln Laboratory ETS, New Mexico MPS 83461
2003 09 01.25034 23 24 35.73 -06 13 10.1 18.9   704 – Lincoln Laboratory ETS, New Mexico MPS 84088
2003 09 01.26217 23 24 35.16 -06 13 11.5 19.8   704 – Lincoln Laboratory ETS, New Mexico MPS 84088
2003 09 01.27400 23 24 34.66 -06 13 12.0 19.5   704 – Lincoln Laboratory ETS, New Mexico MPS 84088
2003 09 01.28581 23 24 33.95 -06 13 12.2 19.2   704 – Lincoln Laboratory ETS, New Mexico MPS 84088
2003 09 01.29771 23 24 33.43 -06 13 14.6 19.6   704 – Lincoln Laboratory ETS, New Mexico MPS 84088
2003 09 15.26248 23 12 33.94 -06 25 55.4 18.5 R 699 – Lowell Observatory-LONEOS MPS 84558
2003 09 15.28232 23 12 32.88 -06 25 56.8   699 – Lowell Observatory-LONEOS MPS 84558
2003 09 15.30214 23 12 31.76 -06 25 57.9   699 – Lowell Observatory-LONEOS MPS 84558
2003 09 15.32195 23 12 30.80 -06 25 58.6   699 – Lowell Observatory-LONEOS MPS 84558
2003 09 18.23627 23 10 01.09 -06 28 07.0 18.6 C 704 – Lincoln Laboratory ETS, New Mexico MPS 291250
2003 09 18.24805 23 10 00.46 -06 28 08.3 18.8 C 704 – Lincoln Laboratory ETS, New Mexico MPS 291250
2003 09 18.25974 23 09 59.77 -06 28 09.6 18.5 C 704 – Lincoln Laboratory ETS, New Mexico MPS 291250
2003 09 18.27136 23 09 59.21 -06 28 08.5 18.9 C 704 – Lincoln Laboratory ETS, New Mexico MPS 291250
2003 09 18.28310 23 09 58.58 -06 28 10.3 18.5 C 704 – Lincoln Laboratory ETS, New Mexico MPS 291250
2003 09 19.30861 23 09 06.50 -06 28 50.3 19.0 V 691 – Steward Observatory, Kitt Peak-Spacewatch MPS 84558
2003 09 19.33602 23 09 05.08 -06 28 51.5 19.0 V 691 – Steward Observatory, Kitt Peak-Spacewatch MPS 84558
2003 09 19.36316 23 09 03.67 -06 28 52.3 19.1 V 691 – Steward Observatory, Kitt Peak-Spacewatch MPS 84558
2003 09 22.24644 23 06 39.88 -06 30 30.8 18.4 R 699 – Lowell Observatory-LONEOS MPS 85254
2003 09 22.26645 23 06 38.85 -06 30 32.1   699 – Lowell Observatory-LONEOS MPS 85254
2003 09 22.28649 23 06 37.85 -06 30 32.9   699 – Lowell Observatory-LONEOS MPS 85254
2003 09 22.30630 23 06 36.87 -06 30 32.7   699 – Lowell Observatory-LONEOS MPS 85254
2003 09 23.47648 23 05 39.59 -06 31 05.2 20.4   608 – Haleakala-AMOS MPS 85254
2003 09 23.48700 23 05 39.04 -06 31 05.6 21.0   608 – Haleakala-AMOS MPS 85254
2003 09 23.49767 23 05 38.57 -06 31 05.1 20.7   608 – Haleakala-AMOS MPS 85254
2003 09 24.27378 23 05 01.20 -06 31 24.9 18.7   644 – Palomar Mountain/NEAT MPS 85254
2003 09 24.29451 23 05 00.18 -06 31 25.4 18.6   644 – Palomar Mountain/NEAT MPS 85254
2003 09 24.31656 23 04 59.09 -06 31 25.8 18.6   644 – Palomar Mountain/NEAT MPS 85254
2003 09 24.41115 23 04 54.57 -06 31 27.7 20.6   608 – Haleakala-AMOS MPS 85254
2003 09 24.42186 23 04 54.08 -06 31 27.6 20.5   608 – Haleakala-AMOS MPS 85254
2003 09 24.43238 23 04 53.53 -06 31 28.5 20.1   608 – Haleakala-AMOS MPS 85254
2003 09 29.10028 23 01 17.70 -06 32 31.0 18.4 R 699 – Lowell Observatory-LONEOS MPS 86938
2003 09 29.11357 23 01 17.08 -06 32 31.9   699 – Lowell Observatory-LONEOS MPS 86938
2003 09 29.12689 23 01 16.53 -06 32 31.6   699 – Lowell Observatory-LONEOS MPS 86938
2003 09 29.14018 23 01 15.87 -06 32 32.0   699 – Lowell Observatory-LONEOS MPS 86938
2003 09 29.16976 23 01 14.47 -06 32 32.3 18.5   704 – Lincoln Laboratory ETS, New Mexico MPS 86938
2003 09 29.18257 23 01 13.94 -06 32 31.4 18.7   704 – Lincoln Laboratory ETS, New Mexico MPS 86938
2003 09 29.19545 23 01 13.33 -06 32 31.2 19.0   704 – Lincoln Laboratory ETS, New Mexico MPS 86938
2003 09 29.20853 23 01 12.76 -06 32 32.0 18.9   704 – Lincoln Laboratory ETS, New Mexico MPS 86938
2003 09 29.22125 23 01 12.11 -06 32 32.3 18.9   704 – Lincoln Laboratory ETS, New Mexico MPS 86938
2003 10 21.14651 22 49 14.65 -06 13 45.9 19.3 R 699 – Lowell Observatory-LONEOS MPS 88051
2003 10 21.16638 22 49 14.35 -06 13 45.1   699 – Lowell Observatory-LONEOS MPS 88051
2003 10 21.18621 22 49 13.78 -06 13 42.6   699 – Lowell Observatory-LONEOS MPS 88051
2003 10 21.20600 22 49 13.33 -06 13 38.9   699 – Lowell Observatory-LONEOS MPS 88051
2003 10 23.14984 22 48 38.51 -06 09 51.8 19.3   704 – Lincoln Laboratory ETS, New Mexico MPS 88051
2003 10 23.16242 22 48 38.27 -06 09 51.1 20.0   704 – Lincoln Laboratory ETS, New Mexico MPS 88051
2003 10 23.17485 22 48 37.99 -06 09 49.4 20.2   704 – Lincoln Laboratory ETS, New Mexico MPS 88051
2003 10 23.18755 22 48 37.79 -06 09 47.7 19.8   704 – Lincoln Laboratory ETS, New Mexico MPS 88051
2003 10 23.19983 22 48 37.56 -06 09 45.6 19.7   704 – Lincoln Laboratory ETS, New Mexico MPS 88051
2004 09 13.37264 04 52 53.77 +37 30 39.9 20.0   704 – Lincoln Laboratory ETS, New Mexico MPS 163782
2004 09 13.39667 04 52 54.77 +37 30 49.4 20.5   704 – Lincoln Laboratory ETS, New Mexico MPS 163782
2004 09 13.40879 04 52 55.35 +37 30 54.0 20.4   704 – Lincoln Laboratory ETS, New Mexico MPS 163782
2005 01 17.15079 03 59 06.84 +40 23 05.0 19.4   704 – Lincoln Laboratory ETS, New Mexico MPS 163782
2005 01 17.16412 03 59 06.70 +40 23 00.8 19.6   704 – Lincoln Laboratory ETS, New Mexico MPS 163782
2005 01 17.18940 03 59 06.66 +40 22 51.8 19.8   704 – Lincoln Laboratory ETS, New Mexico MPS 163782
2005 01 17.20204 03 59 06.59 +40 22 47.0 19.9   704 – Lincoln Laboratory ETS, New Mexico MPS 163782
2006 01 22.47253 10 47 18.53 +17 00 31.0 18.8 R 699 – Lowell Observatory-LONEOS MPS 160404
2006 01 22.49080 10 47 17.98 +17 00 31.2   699 – Lowell Observatory-LONEOS MPS 160404
2006 01 22.52716 10 47 16.78 +17 00 35.7   699 – Lowell Observatory-LONEOS MPS 160404
2006 01 22.54542 10 47 16.12 +17 00 37.7   699 – Lowell Observatory-LONEOS MPS 160404
2006 02 20.34861 10 25 18.04 +17 53 13.3 18.6 V 703 – Catalina Sky Survey MPS 163782
2006 02 20.35545 10 25 17.65 +17 53 13.3 18.8 V 703 – Catalina Sky Survey MPS 163782
2006 02 20.36186 10 25 17.29 +17 53 14.4 18.8 V 703 – Catalina Sky Survey MPS 163782
2006 02 20.36829 10 25 16.96 +17 53 15.2 19.0 V 703 – Catalina Sky Survey MPS 163782
2006 02 22.30666 10 23 32.70 +17 55 48.8 18.9   704 – Lincoln Laboratory ETS, New Mexico MPS 163782
2006 02 22.31940 10 23 32.02 +17 55 51.4 19.7   704 – Lincoln Laboratory ETS, New Mexico MPS 163782
2006 02 22.33205 10 23 31.30 +17 55 51.2 19.4   704 – Lincoln Laboratory ETS, New Mexico MPS 163782
2006 02 22.34483 10 23 30.70 +17 55 53.0 19.3   704 – Lincoln Laboratory ETS, New Mexico MPS 163782
2007 04 16.65015 14 09 08.17 -28 51 08.7 19.6 V E12 – Siding Spring Survey MPS 207884
